Data supplied by UK-AIR on 16/3/2023
All Data GMT hour ending 
Status: R =Ratified P=Provisional,P*=As supplied
,,Walsall Woodlands,,,,,,,,,,,,,,,,,,,,,,,
Date,time,"Nitric oxide",status,unit,"Nitrogen dioxide",status,unit,"Nitrogen oxides as nitrogen dioxide",status,unit,"Ozone",status,unit
 
01-01-2022,01:00,0.59375,R,ugm-3,4.06241,R,ugm-3,4.97281,R,ugm-3,52.08777,R,ugm-3
01-01-2022,02:00,0.66796,R,ugm-3,3.04446,R,ugm-3,4.06866,R,ugm-3,50.09207,R,ugm-3
01-01-2022,03:00,0.44531,R,ugm-3,2.99030,R,ugm-3,3.67310,R,ugm-3,52.53680,R,ugm-3
01-01-2022,04:00,0.63086,R,ugm-3,2.08420,R,ugm-3,3.05150,R,ugm-3,55.18111,R,ugm-3
01-01-2022,05:00,0.40820,R,ugm-3,1.40843,R,ugm-3,2.03433,R,ugm-3,57.37638,R,ugm-3
01-01-2022,06:00,0.44531,R,ugm-3,1.29502,R,ugm-3,1.97782,R,ugm-3,56.82756,R,ugm-3
01-01-2022,07:00,0.44531,R,ugm-3,1.97313,R,ugm-3,2.65593,R,ugm-3,54.78197,R,ugm-3
01-01-2022,08:00,0.48242,R,ugm-3,2.36831,R,ugm-3,3.10800,R,ugm-3,53.08562,R,ugm-3
01-01-2022,09:00,0.55664,R,ugm-3,3.38469,R,ugm-3,4.23819,R,ugm-3,51.43917,R,ugm-3
01-01-2022,10:00,0.85351,R,ugm-3,4.00317,R,ugm-3,5.31186,R,ugm-3,51.48906,R,ugm-3
01-01-2022,11:00,1.00195,R,ugm-3,4.34066,R,ugm-3,5.87695,R,ugm-3,51.58885,R,ugm-3
01-01-2022,12:00,1.29882,R,ugm-3,4.67659,R,ugm-3,6.66808,R,ugm-3,50.89035,R,ugm-3
01-01-2022,13:00,1.74413,R,ugm-3,4.84143,R,ugm-3,7.51572,R,ugm-3,51.98799,R,ugm-3
01-01-2022,14:00,1.07617,R,ugm-3,6.03515,R,ugm-3,7.68525,R,ugm-3,51.18971,R,ugm-3
01-01-2022,15:00,1.29882,R,ugm-3,6.37186,R,ugm-3,8.36336,R,ugm-3,54.38283,R,ugm-3
01-01-2022,16:00,0.92773,R,ugm-3,6.09322,R,ugm-3,7.51572,R,ugm-3,61.51745,R,ugm-3
01-01-2022,17:00,0.96484,R,ugm-3,6.82745,R,ugm-3,8.30685,R,ugm-3,64.81036,R,ugm-3
01-01-2022,18:00,0.81640,R,ugm-3,8.18523,R,ugm-3,9.43703,R,ugm-3,64.41122,R,ugm-3
01-01-2022,19:00,0.85351,R,ugm-3,7.84579,R,ugm-3,9.15449,R,ugm-3,61.56735,R,ugm-3
01-01-2022,20:00,0.70507,R,ugm-3,6.77368,R,ugm-3,7.85478,R,ugm-3,58.42412,R,ugm-3
01-01-2022,21:00,0.63086,R,ugm-3,7.05701,R,ugm-3,8.02430,R,ugm-3,55.92949,R,ugm-3
01-01-2022,22:00,0.70507,R,ugm-3,8.01688,R,ugm-3,9.09798,R,ugm-3,53.63444,R,ugm-3
01-01-2022,23:00,0.55664,R,ugm-3,6.49270,R,ugm-3,7.34619,R,ugm-3,57.82541,R,ugm-3
01-01-2022,24:00,0.40820,R,ugm-3,5.25106,R,ugm-3,5.87695,R,ugm-3,62.86455,R,ugm-3
02-01-2022,01:00,0.49481,R,ugm-3,3.53605,R,ugm-3,4.29474,R,ugm-3,64.52763,R,ugm-3
02-01-2022,02:00,0.59377,R,ugm-3,3.38431,R,ugm-3,4.29474,R,ugm-3,64.21165,R,ugm-3
02-01-2022,03:00,0.40821,R,ugm-3,2.82118,R,ugm-3,3.44709,R,ugm-3,65.50885,R,ugm-3
02-01-2022,04:00,0.59377,R,ugm-3,3.04525,R,ugm-3,3.95568,R,ugm-3,61.46756,R,ugm-3
02-01-2022,05:00,0.40821,R,ugm-3,1.29541,R,ugm-3,1.92133,R,ugm-3,73.69122,R,ugm-3
02-01-2022,06:00,0.37110,R,ugm-3,1.52184,R,ugm-3,2.09086,R,ugm-3,74.78886,R,ugm-3
02-01-2022,07:00,0.77932,R,ugm-3,2.19565,R,ugm-3,3.39058,R,ugm-3,68.75187,R,ugm-3
02-01-2022,08:00,0.48243,R,ugm-3,2.42482,R,ugm-3,3.16455,R,ugm-3,71.64563,R,ugm-3
02-01-2022,09:00,0.74221,R,ugm-3,3.83482,R,ugm-3,4.97286,R,ugm-3,72.59359,R,ugm-3
02-01-2022,10:00,0.77932,R,ugm-3,4.73858,R,ugm-3,5.93352,R,ugm-3,73.19230,R,ugm-3
02-01-2022,11:00,1.15042,R,ugm-3,4.50863,R,ugm-3,6.27258,R,ugm-3,73.19230,R,ugm-3
02-01-2022,12:00,1.55864,R,ugm-3,4.89988,R,ugm-3,7.28976,R,ugm-3,72.99273,R,ugm-3
02-01-2022,13:00,1.59575,R,ugm-3,6.59478,R,ugm-3,9.04156,R,ugm-3,70.04907,R,ugm-3
02-01-2022,14:00,1.55864,R,ugm-3,7.38631,R,ugm-3,9.77618,R,ugm-3,69.15101,R,ugm-3
02-01-2022,15:00,1.63286,R,ugm-3,9.75893,R,ugm-3,12.26261,R,ugm-3,65.60864,R,ugm-3
02-01-2022,16:00,1.00198,R,ugm-3,6.14898,R,ugm-3,7.68532,R,ugm-3,73.89079,R,ugm-3
02-01-2022,17:00,1.11331,R,ugm-3,9.82093,R,ugm-3,11.52799,R,ugm-3,70.44821,R,ugm-3
02-01-2022,18:00,0.74221,R,ugm-3,8.52513,R,ugm-3,9.66316,R,ugm-3,69.74972,R,ugm-3
02-01-2022,19:00,0.96487,R,ugm-3,7.84466,R,ugm-3,9.32411,R,ugm-3,70.49810,R,ugm-3
02-01-2022,20:00,1.18753,R,ugm-3,6.31654,R,ugm-3,8.13740,R,ugm-3,72.79316,R,ugm-3
02-01-2022,21:00,1.37308,R,ugm-3,5.12788,R,ugm-3,7.23325,R,ugm-3,72.99273,R,ugm-3
02-01-2022,22:00,1.00198,R,ugm-3,4.17114,R,ugm-3,5.70748,R,ugm-3,73.34198,R,ugm-3
02-01-2022,23:00,0.51955,R,ugm-3,1.63329,R,ugm-3,2.42992,R,ugm-3,75.13811,R,ugm-3
02-01-2022,24:00,0.44533,R,ugm-3,1.40804,R,ugm-3,2.09086,R,ugm-3,74.04047,R,ugm-3
03-01-2022,01:00,0.39586,R,ugm-3,0.74928,R,ugm-3,1.35625,R,ugm-3,75.63703,R,ugm-3
03-01-2022,02:00,0.51956,R,ugm-3,0.16402,R,ugm-3,0.96068,R,ugm-3,77.23359,R,ugm-3
03-01-2022,03:00,0.25978,R,ugm-3,0.22329,R,ugm-3,0.62161,R,ugm-3,77.98198,R,ugm-3
03-01-2022,04:00,0.40823,R,ugm-3,0.16520,R,ugm-3,0.79114,R,ugm-3,76.23574,R,ugm-3
03-01-2022,05:00,0.44534,R,ugm-3,0.84293,R,ugm-3,1.52578,R,ugm-3,76.98413,R,ugm-3
03-01-2022,06:00,0.44534,R,ugm-3,0.95595,R,ugm-3,1.63880,R,ugm-3,78.03187,R,ugm-3
03-01-2022,07:00,0.59379,R,ugm-3,1.51948,R,ugm-3,2.42994,R,ugm-3,78.88004,R,ugm-3
03-01-2022,08:00,0.40823,R,ugm-3,2.14306,R,ugm-3,2.76900,R,ugm-3,83.76951,R,ugm-3
03-01-2022,09:00,1.26180,R,ugm-3,4.79000,R,ugm-3,6.72473,R,ugm-3,77.03402,R,ugm-3
03-01-2022,10:00,0.89068,R,ugm-3,3.60722,R,ugm-3,4.97291,R,ugm-3,78.23144,R,ugm-3
03-01-2022,11:00,1.29891,R,ugm-3,3.43336,R,ugm-3,5.42499,R,ugm-3,80.57639,R,ugm-3
03-01-2022,12:00,1.70714,R,ugm-3,3.54205,R,ugm-3,6.15962,R,ugm-3,77.53295,R,ugm-3
03-01-2022,13:00,1.33602,R,ugm-3,4.56317,R,ugm-3,6.61170,R,ugm-3,74.09036,R,ugm-3
03-01-2022,14:00,1.89269,R,ugm-3,7.77836,R,ugm-3,10.68044,R,ugm-3,69.30068,R,ugm-3
03-01-2022,15:00,1.55869,R,ugm-3,10.15533,R,ugm-3,12.54529,R,ugm-3,67.45466,R,ugm-3
03-01-2022,16:00,1.67002,R,ugm-3,12.35805,R,ugm-3,14.91872,R,ugm-3,65.30928,R,ugm-3
03-01-2022,17:00,1.29891,R,ugm-3,13.20964,R,ugm-3,15.20127,R,ugm-3,63.31358,R,ugm-3
03-01-2022,18:00,1.33602,R,ugm-3,15.92174,R,ugm-3,17.97027,R,ugm-3,58.72347,R,ugm-3
03-01-2022,19:00,1.11335,R,ugm-3,14.51134,R,ugm-3,16.21845,R,ugm-3,59.27229,R,ugm-3
03-01-2022,20:00,1.48446,R,ugm-3,13.03814,R,ugm-3,15.31429,R,ugm-3,59.47186,R,ugm-3
03-01-2022,21:00,0.81646,R,ugm-3,10.55877,R,ugm-3,11.81065,R,ugm-3,61.91659,R,ugm-3
03-01-2022,22:00,0.85357,R,ugm-3,10.27583,R,ugm-3,11.58461,R,ugm-3,61.16821,R,ugm-3
03-01-2022,23:00,0.74223,R,ugm-3,9.65539,R,ugm-3,10.79347,R,ugm-3,60.46971,R,ugm-3
03-01-2022,24:00,0.48245,R,ugm-3,4.51571,R,ugm-3,5.25546,R,ugm-3,66.05767,R,ugm-3
04-01-2022,01:00,0.39587,R,ugm-3,4.74270,R,ugm-3,5.34970,R,ugm-3,62.59846,R,ugm-3
04-01-2022,02:00,0.77937,R,ugm-3,7.73370,R,ugm-3,8.92872,R,ugm-3,55.03143,R,ugm-3
04-01-2022,03:00,0.59381,R,ugm-3,9.43100,R,ugm-3,10.34149,R,ugm-3,49.59315,R,ugm-3
04-01-2022,04:00,0.37113,R,ugm-3,4.29088,R,ugm-3,4.85993,R,ugm-3,56.42842,R,ugm-3
04-01-2022,05:00,0.51958,R,ugm-3,5.13696,R,ugm-3,5.93364,R,ugm-3,53.73422,R,ugm-3
04-01-2022,06:00,0.55669,R,ugm-3,6.15376,R,ugm-3,7.00735,R,ugm-3,54.08347,R,ugm-3
04-01-2022,07:00,0.85360,R,ugm-3,14.17515,R,ugm-3,15.48397,R,ugm-3,52.08777,R,ugm-3
04-01-2022,08:00,1.37318,R,ugm-3,18.91653,R,ugm-3,21.02204,R,ugm-3,45.90110,R,ugm-3
04-01-2022,09:00,1.74430,R,ugm-3,22.07719,R,ugm-3,24.75175,R,ugm-3,41.21121,R,ugm-3
04-01-2022,10:00,1.85564,R,ugm-3,15.12517,R,ugm-3,17.97045,R,ugm-3,48.04648,R,ugm-3
04-01-2022,11:00,3.30304,R,ugm-3,16.91813,R,ugm-3,21.98272,R,ugm-3,48.39573,R,ugm-3
04-01-2022,12:00,3.22882,R,ugm-3,10.19412,R,ugm-3,15.14491,R,ugm-3,55.13121,R,ugm-3
04-01-2022,13:00,3.15459,R,ugm-3,9.29074,R,ugm-3,14.12771,R,ugm-3,55.38068,R,ugm-3
04-01-2022,14:00,2.18966,R,ugm-3,6.64499,R,ugm-3,10.00242,R,ugm-3,60.22025,R,ugm-3
04-01-2022,15:00,1.70719,R,ugm-3,7.89336,R,ugm-3,10.51102,R,ugm-3,60.46971,R,ugm-3
04-01-2022,16:00,1.89276,R,ugm-3,11.79064,R,ugm-3,14.69282,R,ugm-3,56.37853,R,ugm-3
04-01-2022,17:00,2.44945,R,ugm-3,24.33013,R,ugm-3,28.08589,R,ugm-3,42.05938,R,ugm-3
04-01-2022,18:00,1.48451,R,ugm-3,23.26668,R,ugm-3,25.54290,R,ugm-3,41.80992,R,ugm-3
04-01-2022,19:00,1.00205,R,ugm-3,15.07774,R,ugm-3,16.61419,R,ugm-3,53.73422,R,ugm-3
04-01-2022,20:00,0.89071,R,ugm-3,8.97575,R,ugm-3,10.34149,R,ugm-3,61.41767,R,ugm-3
04-01-2022,21:00,0.55669,R,ugm-3,5.92772,R,ugm-3,6.78130,R,ugm-3,65.10971,R,ugm-3
04-01-2022,22:00,0.55669,R,ugm-3,5.58865,R,ugm-3,6.44224,R,ugm-3,65.55875,R,ugm-3
04-01-2022,23:00,0.55669,R,ugm-3,4.85401,R,ugm-3,5.70760,R,ugm-3,64.61079,R,ugm-3
04-01-2022,24:00,0.44536,R,ugm-3,2.99034,R,ugm-3,3.67321,R,ugm-3,67.80391,R,ugm-3
05-01-2022,01:00,0.29691,R,ugm-3,2.18194,R,ugm-3,2.63720,R,ugm-3,69.71645,R,ugm-3
05-01-2022,02:00,0.66805,R,ugm-3,2.25333,R,ugm-3,3.27766,R,ugm-3,68.05337,R,ugm-3
05-01-2022,03:00,0.48248,R,ugm-3,1.12508,R,ugm-3,1.86488,R,ugm-3,73.19230,R,ugm-3
05-01-2022,04:00,0.51960,R,ugm-3,1.46375,R,ugm-3,2.26046,R,ugm-3,72.14456,R,ugm-3
05-01-2022,05:00,0.51960,R,ugm-3,1.68980,R,ugm-3,2.48650,R,ugm-3,72.69337,R,ugm-3
05-01-2022,06:00,1.00208,R,ugm-3,3.54953,R,ugm-3,5.08603,R,ugm-3,71.24649,R,ugm-3
05-01-2022,07:00,0.85362,R,ugm-3,6.94179,R,ugm-3,8.25067,R,ugm-3,67.50455,R,ugm-3
05-01-2022,08:00,1.18765,R,ugm-3,14.17169,R,ugm-3,15.99273,R,ugm-3,59.62154,R,ugm-3
05-01-2022,09:00,6.45785,R,ugm-3,32.02957,R,ugm-3,41.93147,R,ugm-3,42.45852,R,ugm-3
05-01-2022,10:00,3.34027,R,ugm-3,25.95961,R,ugm-3,31.08128,R,ugm-3,47.04863,R,ugm-3
05-01-2022,11:00,2.59799,R,ugm-3,9.35317,R,ugm-3,13.33669,R,ugm-3,59.27229,R,ugm-3
05-01-2022,12:00,2.82067,R,ugm-3,7.09034,R,ugm-3,11.41531,R,ugm-3,59.72132,R,ugm-3
05-01-2022,13:00,2.74644,R,ugm-3,6.97811,R,ugm-3,11.18926,R,ugm-3,59.52175,R,ugm-3
05-01-2022,14:00,2.74644,R,ugm-3,8.16485,R,ugm-3,12.37600,R,ugm-3,57.62584,R,ugm-3
05-01-2022,15:00,2.48664,R,ugm-3,10.65412,R,ugm-3,14.46692,R,ugm-3,55.03143,R,ugm-3
05-01-2022,16:00,3.52584,R,ugm-3,19.11974,R,ugm-3,24.52595,R,ugm-3,44.75357,R,ugm-3
05-01-2022,17:00,3.78564,R,ugm-3,34.71412,R,ugm-3,40.51868,R,ugm-3,26.64260,R,ugm-3
05-01-2022,18:00,3.41450,R,ugm-3,35.22668,R,ugm-3,40.46217,R,ugm-3,11.82452,R,ugm-3
05-01-2022,19:00,9.38986,R,ugm-3,50.70356,R,ugm-3,65.10115,R,ugm-3,10.62710,R,ugm-3
05-01-2022,20:00,4.19389,R,ugm-3,44.37322,R,ugm-3,50.80376,R,ugm-3,15.96560,R,ugm-3
05-01-2022,21:00,1.59591,R,ugm-3,32.87261,R,ugm-3,35.31963,R,ugm-3,23.74883,R,ugm-3
05-01-2022,22:00,2.67221,R,ugm-3,26.75789,R,ugm-3,30.85523,R,ugm-3,9.67915,R,ugm-3
05-01-2022,23:00,10.76308,R,ugm-3,32.20967,R,ugm-3,48.71284,R,ugm-3,3.29291,R,ugm-3
05-01-2022,24:00,28.76341,R,ugm-3,34.95618,R,ugm-3,79.05946,R,ugm-3,3.09334,R,ugm-3
06-01-2022,01:00,22.17021,R,ugm-3,28.92281,R,ugm-3,62.91666,R,ugm-3,2.46136,R,ugm-3
06-01-2022,02:00,28.57879,R,ugm-3,31.84933,R,ugm-3,75.66953,R,ugm-3,2.44473,R,ugm-3
06-01-2022,03:00,39.00819,R,ugm-3,32.30278,R,ugm-3,92.11451,R,ugm-3,2.79398,R,ugm-3
06-01-2022,04:00,46.98799,R,ugm-3,28.99616,R,ugm-3,101.04340,R,ugm-3,2.59441,R,ugm-3
06-01-2022,05:00,36.78127,R,ugm-3,29.72708,R,ugm-3,86.12424,R,ugm-3,2.59441,R,ugm-3
06-01-2022,06:00,20.82169,R,ugm-3,32.94960,R,ugm-3,64.87574,R,ugm-3,3.24301,R,ugm-3
06-01-2022,07:00,15.40285,R,ugm-3,36.45484,R,ugm-3,60.07223,R,ugm-3,2.84387,R,ugm-3
06-01-2022,08:00,20.15362,R,ugm-3,48.83661,R,ugm-3,79.73839,R,ugm-3,4.59011,R,ugm-3
06-01-2022,09:00,21.97227,R,ugm-3,56.61579,R,ugm-3,90.30613,R,ugm-3,12.22366,R,ugm-3
06-01-2022,10:00,5.23326,R,ugm-3,35.65953,R,ugm-3,43.68375,R,ugm-3,35.02454,R,ugm-3
06-01-2022,11:00,1.96711,R,ugm-3,23.37489,R,ugm-3,26.39109,R,ugm-3,50.94024,R,ugm-3
06-01-2022,12:00,2.63519,R,ugm-3,21.05075,R,ugm-3,25.09132,R,ugm-3,55.63014,R,ugm-3
06-01-2022,13:00,2.18980,R,ugm-3,24.78531,R,ugm-3,28.14296,R,ugm-3,48.64519,R,ugm-3
06-01-2022,14:00,1.74442,R,ugm-3,22.24704,R,ugm-3,24.92178,R,ugm-3,52.43702,R,ugm-3
06-01-2022,15:00,8.64787,R,ugm-3,20.47777,R,ugm-3,33.73765,R,ugm-3,56.87745,R,ugm-3
06-01-2022,16:00,3.85999,R,ugm-3,17.87297,R,ugm-3,23.79154,R,ugm-3,55.92949,R,ugm-3
06-01-2022,17:00,2.04134,R,ugm-3,17.27081,R,ugm-3,20.40082,R,ugm-3,57.72562,R,ugm-3
06-01-2022,18:00,1.15057,R,ugm-3,18.29756,R,ugm-3,20.06175,R,ugm-3,55.33078,R,ugm-3
06-01-2022,19:00,2.04134,R,ugm-3,22.75247,R,ugm-3,25.88248,R,ugm-3,51.63874,R,ugm-3
06-01-2022,20:00,1.33615,R,ugm-3,14.33974,R,ugm-3,16.38847,R,ugm-3,65.05982,R,ugm-3
06-01-2022,21:00,1.15057,R,ugm-3,10.38589,R,ugm-3,12.15007,R,ugm-3,69.79961,R,ugm-3
06-01-2022,22:00,0.59385,R,ugm-3,5.07972,R,ugm-3,5.99027,R,ugm-3,81.72392,R,ugm-3
06-01-2022,23:00,0.59385,R,ugm-3,10.95697,R,ugm-3,11.86751,R,ugm-3,68.55230,R,ugm-3
06-01-2022,24:00,0.63096,R,ugm-3,5.24886,R,ugm-3,6.21632,R,ugm-3,76.03617,R,ugm-3
07-01-2022,01:00,0.39591,R,ugm-3,6.02375,R,ugm-3,6.63080,R,ugm-3,73.50828,R,ugm-3
07-01-2022,02:00,0.77945,R,ugm-3,5.24729,R,ugm-3,6.44243,R,ugm-3,75.28778,R,ugm-3
07-01-2022,03:00,0.55675,R,ugm-3,9.14905,R,ugm-3,10.00272,R,ugm-3,66.85595,R,ugm-3
07-01-2022,04:00,0.48252,R,ugm-3,2.31183,R,ugm-3,3.05168,R,ugm-3,79.27918,R,ugm-3
07-01-2022,05:00,0.51963,R,ugm-3,4.00681,R,ugm-3,4.80357,R,ugm-3,74.04047,R,ugm-3
07-01-2022,06:00,1.15061,R,ugm-3,5.18679,R,ugm-3,6.95104,R,ugm-3,72.04477,R,ugm-3
07-01-2022,07:00,0.96503,R,ugm-3,11.12260,R,ugm-3,12.60229,R,ugm-3,67.05552,R,ugm-3
07-01-2022,08:00,2.07853,R,ugm-3,29.59024,R,ugm-3,32.77727,R,ugm-3,46.15056,R,ugm-3
07-01-2022,09:00,12.35981,R,ugm-3,29.36677,R,ugm-3,48.31822,R,ugm-3,53.73422,R,ugm-3
07-01-2022,10:00,3.71165,R,ugm-3,20.53069,R,ugm-3,26.22182,R,ugm-3,61.36778,R,ugm-3
07-01-2022,11:00,3.52607,R,ugm-3,15.16399,R,ugm-3,20.57056,R,ugm-3,65.65853,R,ugm-3
07-01-2022,12:00,2.85798,R,ugm-3,12.96718,R,ugm-3,17.34935,R,ugm-3,67.70412,R,ugm-3
07-01-2022,13:00,3.19202,R,ugm-3,17.93670,R,ugm-3,22.83106,R,ugm-3,59.57165,R,ugm-3
07-01-2022,14:00,3.63742,R,ugm-3,21.49220,R,ugm-3,27.06950,R,ugm-3,54.53250,R,ugm-3
07-01-2022,15:00,23.45766,R,ugm-3,32.80784,R,ugm-3,68.77575,R,ugm-3,58.12476,R,ugm-3
07-01-2022,16:00,13.51042,R,ugm-3,26.41576,R,ugm-3,47.13145,R,ugm-3,58.22455,R,ugm-3
07-01-2022,17:00,1.81871,R,ugm-3,17.55586,R,ugm-3,20.34451,R,ugm-3,63.71272,R,ugm-3
07-01-2022,18:00,1.70736,R,ugm-3,20.38268,R,ugm-3,23.00060,R,ugm-3,60.17036,R,ugm-3
07-01-2022,19:00,1.67024,R,ugm-3,19.36586,R,ugm-3,21.92686,R,ugm-3,60.46971,R,ugm-3
07-01-2022,20:00,1.81871,R,ugm-3,17.61237,R,ugm-3,20.40102,R,ugm-3,61.31788,R,ugm-3
07-01-2022,21:00,1.59601,R,ugm-3,25.01791,R,ugm-3,27.46509,R,ugm-3,50.94024,R,ugm-3
07-01-2022,22:00,0.81656,R,ugm-3,26.94771,R,ugm-3,28.19975,R,ugm-3,26.54281,R,ugm-3
07-01-2022,23:00,0.96503,R,ugm-3,22.42511,R,ugm-3,23.90480,R,ugm-3,29.73593,R,ugm-3
07-01-2022,24:00,1.37331,R,ugm-3,14.11338,R,ugm-3,16.21910,R,ugm-3,51.18971,R,ugm-3
08-01-2022,01:00,0.54439,R,ugm-3,13.63263,R,ugm-3,14.46735,R,ugm-3,39.91400,R,ugm-3
08-01-2022,02:00,0.85371,R,ugm-3,13.10184,R,ugm-3,14.41084,R,ugm-3,51.58885,R,ugm-3
08-01-2022,03:00,0.48253,R,ugm-3,9.60203,R,ugm-3,10.34190,R,ugm-3,55.23100,R,ugm-3
08-01-2022,04:00,0.44541,R,ugm-3,6.88980,R,ugm-3,7.57275,R,ugm-3,59.22240,R,ugm-3
08-01-2022,05:00,0.59388,R,ugm-3,5.75794,R,ugm-3,6.66855,R,ugm-3,55.33078,R,ugm-3
08-01-2022,06:00,0.59388,R,ugm-3,8.58359,R,ugm-3,9.49420,R,ugm-3,52.33723,R,ugm-3
08-01-2022,07:00,0.48253,R,ugm-3,6.71986,R,ugm-3,7.45973,R,ugm-3,59.27229,R,ugm-3
08-01-2022,08:00,0.66812,R,ugm-3,6.77437,R,ugm-3,7.79881,R,ugm-3,64.26154,R,ugm-3
08-01-2022,09:00,0.77947,R,ugm-3,8.75113,R,ugm-3,9.94630,R,ugm-3,66.75617,R,ugm-3
08-01-2022,10:00,1.22489,R,ugm-3,9.53751,R,ugm-3,11.41564,R,ugm-3,67.50455,R,ugm-3
08-01-2022,11:00,1.41048,R,ugm-3,11.06137,R,ugm-3,13.22406,R,ugm-3,67.00563,R,ugm-3
08-01-2022,12:00,1.44759,R,ugm-3,11.68261,R,ugm-3,13.90222,R,ugm-3,66.25724,R,ugm-3
08-01-2022,13:00,1.55895,R,ugm-3,12.81167,R,ugm-3,15.20202,R,ugm-3,67.35488,R,ugm-3
08-01-2022,14:00,1.29912,R,ugm-3,9.36717,R,ugm-3,11.35913,R,ugm-3,72.99273,R,ugm-3
08-01-2022,15:00,2.30130,R,ugm-3,21.28063,R,ugm-3,24.80925,R,ugm-3,52.93594,R,ugm-3
08-01-2022,16:00,3.63754,R,ugm-3,34.77286,R,ugm-3,40.35035,R,ugm-3,37.66884,R,ugm-3
08-01-2022,17:00,1.41048,R,ugm-3,21.79885,R,ugm-3,23.96155,R,ugm-3,50.84046,R,ugm-3
08-01-2022,18:00,0.92795,R,ugm-3,10.21887,R,ugm-3,11.64170,R,ugm-3,69.94929,R,ugm-3
08-01-2022,19:00,1.03930,R,ugm-3,12.08260,R,ugm-3,13.67617,R,ugm-3,65.45896,R,ugm-3
08-01-2022,20:00,0.89083,R,ugm-3,8.18480,R,ugm-3,9.55071,R,ugm-3,68.55230,R,ugm-3
08-01-2022,21:00,0.74236,R,ugm-3,10.16436,R,ugm-3,11.30262,R,ugm-3,66.25724,R,ugm-3
08-01-2022,22:00,0.51965,R,ugm-3,5.19360,R,ugm-3,5.99039,R,ugm-3,70.09896,R,ugm-3
08-01-2022,23:00,0.37118,R,ugm-3,3.04771,R,ugm-3,3.61684,R,ugm-3,70.49810,R,ugm-3
08-01-2022,24:00,0.59388,R,ugm-3,2.25412,R,ugm-3,3.16473,R,ugm-3,69.40047,R,ugm-3
09-01-2022,01:00,0.54441,R,ugm-3,1.27509,R,ugm-3,2.10984,R,ugm-3,72.97610,R,ugm-3
09-01-2022,02:00,0.48255,R,ugm-3,1.63368,R,ugm-3,2.37357,R,ugm-3,72.09466,R,ugm-3
09-01-2022,03:00,0.48255,R,ugm-3,0.61643,R,ugm-3,1.35633,R,ugm-3,75.93639,R,ugm-3
09-01-2022,04:00,0.63102,R,ugm-3,3.94913,R,ugm-3,4.91669,R,ugm-3,70.04907,R,ugm-3
09-01-2022,05:00,0.70526,R,ugm-3,3.94833,R,ugm-3,5.02971,R,ugm-3,70.79746,R,ugm-3
09-01-2022,06:00,0.51967,R,ugm-3,4.34593,R,ugm-3,5.14274,R,ugm-3,70.04907,R,ugm-3
09-01-2022,07:00,0.63102,R,ugm-3,7.05738,R,ugm-3,8.02494,R,ugm-3,64.16176,R,ugm-3
09-01-2022,08:00,0.81662,R,ugm-3,12.48069,R,ugm-3,13.73282,R,ugm-3,59.62154,R,ugm-3
09-01-2022,09:00,1.78171,R,ugm-3,14.05263,R,ugm-3,16.78456,R,ugm-3,59.17251,R,ugm-3
09-01-2022,10:00,1.96731,R,ugm-3,13.71154,R,ugm-3,16.72804,R,ugm-3,63.16391,R,ugm-3
09-01-2022,11:00,3.48919,R,ugm-3,12.22573,R,ugm-3,17.57575,R,ugm-3,63.41337,R,ugm-3
09-01-2022,12:00,3.37783,R,ugm-3,11.09666,R,ugm-3,16.27593,R,ugm-3,64.51100,R,ugm-3
09-01-2022,13:00,3.30359,R,ugm-3,10.41930,R,ugm-3,15.48474,R,ugm-3,67.40477,R,ugm-3
09-01-2022,14:00,1.74459,R,ugm-3,7.04534,R,ugm-3,9.72035,R,ugm-3,73.89079,R,ugm-3
09-01-2022,15:00,1.63324,R,ugm-3,9.58966,R,ugm-3,12.09392,R,ugm-3,70.19875,R,ugm-3
09-01-2022,16:00,2.04155,R,ugm-3,12.97606,R,ugm-3,16.10639,R,ugm-3,66.10756,R,ugm-3
09-01-2022,17:00,1.81883,R,ugm-3,24.05515,R,ugm-3,26.84398,R,ugm-3,54.18326,R,ugm-3
09-01-2022,18:00,3.08088,R,ugm-3,38.39597,R,ugm-3,43.11992,R,ugm-3,35.97249,R,ugm-3
09-01-2022,19:00,5.23378,R,ugm-3,26.05271,R,ugm-3,34.07773,R,ugm-3,17.41248,R,ugm-3
09-01-2022,20:00,2.44986,R,ugm-3,30.88648,R,ugm-3,34.64287,R,ugm-3,6.58581,R,ugm-3
09-01-2022,21:00,25.16669,R,ugm-3,37.93109,R,ugm-3,76.51948,R,ugm-3,2.09549,R,ugm-3
09-01-2022,22:00,10.13349,R,ugm-3,35.04192,R,ugm-3,50.57972,R,ugm-3,2.49463,R,ugm-3
09-01-2022,23:00,5.56785,R,ugm-3,25.71002,R,ugm-3,34.24727,R,ugm-3,2.49463,R,ugm-3
09-01-2022,24:00,10.20773,R,ugm-3,27.12920,R,ugm-3,42.78083,R,ugm-3,1.59656,R,ugm-3
10-01-2022,01:00,11.82899,R,ugm-3,29.25906,R,ugm-3,47.39659,R,ugm-3,0.00000,R,ugm-3
10-01-2022,02:00,7.38693,R,ugm-3,25.23823,R,ugm-3,36.56469,R,ugm-3,1.29721,R,ugm-3
10-01-2022,03:00,4.67715,R,ugm-3,16.67747,R,ugm-3,23.84900,R,ugm-3,1.59656,R,ugm-3
10-01-2022,04:00,2.82114,R,ugm-3,16.81063,R,ugm-3,21.13632,R,ugm-3,2.34495,R,ugm-3
10-01-2022,05:00,7.98085,R,ugm-3,19.74991,R,ugm-3,31.98704,R,ugm-3,1.09764,R,ugm-3
10-01-2022,06:00,14.77386,R,ugm-3,20.07181,R,ugm-3,42.72474,R,ugm-3,0.14968,R,ugm-3
10-01-2022,07:00,21.52974,R,ugm-3,19.03778,R,ugm-3,52.04959,R,ugm-3,0.44903,R,ugm-3
10-01-2022,08:00,49.66689,R,ugm-3,43.59877,R,ugm-3,119.75361,R,ugm-3,0.84817,R,ugm-3
10-01-2022,09:00,78.58357,R,ugm-3,62.44338,R,ugm-3,182.93650,R,ugm-3,2.49463,R,ugm-3
10-01-2022,10:00,35.00439,R,ugm-3,61.10771,R,ugm-3,114.78036,R,ugm-3,5.13893,R,ugm-3
10-01-2022,11:00,15.85035,R,ugm-3,49.16495,R,ugm-3,73.46847,R,ugm-3,12.57291,R,ugm-3
10-01-2022,12:00,4.08323,R,ugm-3,30.07778,R,ugm-3,36.33864,R,ugm-3,40.26325,R,ugm-3
10-01-2022,13:00,4.34307,R,ugm-3,28.60559,R,ugm-3,35.26487,R,ugm-3,44.45422,R,ugm-3
10-01-2022,14:00,3.04386,R,ugm-3,28.22408,R,ugm-3,32.89127,R,ugm-3,44.90325,R,ugm-3
10-01-2022,15:00,7.05285,R,ugm-3,25.01580,R,ugm-3,35.83001,R,ugm-3,53.68433,R,ugm-3
10-01-2022,16:00,11.06183,R,ugm-3,29.43693,R,ugm-3,46.39817,R,ugm-3,43.70583,R,ugm-3
10-01-2022,17:00,2.04161,R,ugm-3,30.38250,R,ugm-3,33.51293,R,ugm-3,35.67314,R,ugm-3
10-01-2022,18:00,2.07873,R,ugm-3,29.53438,R,ugm-3,32.72173,R,ugm-3,35.42368,R,ugm-3
10-01-2022,19:00,1.37345,R,ugm-3,24.85135,R,ugm-3,26.95728,R,ugm-3,40.66239,R,ugm-3
10-01-2022,20:00,1.11361,R,ugm-3,21.51983,R,ugm-3,23.22734,R,ugm-3,42.05938,R,ugm-3
10-01-2022,21:00,0.55680,R,ugm-3,15.87445,R,ugm-3,16.72821,R,ugm-3,47.14841,R,ugm-3
10-01-2022,22:00,0.85377,R,ugm-3,12.48038,R,ugm-3,13.78947,R,ugm-3,48.84476,R,ugm-3
10-01-2022,23:00,0.59392,R,ugm-3,12.76577,R,ugm-3,13.67644,R,ugm-3,45.00304,R,ugm-3
10-01-2022,24:00,0.44544,R,ugm-3,9.82864,R,ugm-3,10.51164,R,ugm-3,47.24820,R,ugm-3
11-01-2022,01:00,0.54445,R,ugm-3,10.16673,R,ugm-3,11.00154,R,ugm-3,45.56848,R,ugm-3
11-01-2022,02:00,0.66819,R,ugm-3,6.20935,R,ugm-3,7.23389,R,ugm-3,49.99229,R,ugm-3
11-01-2022,03:00,0.44546,R,ugm-3,8.69843,R,ugm-3,9.38145,R,ugm-3,45.50196,R,ugm-3
11-01-2022,04:00,0.48258,R,ugm-3,7.96333,R,ugm-3,8.70328,R,ugm-3,45.30239,R,ugm-3
11-01-2022,05:00,0.63107,R,ugm-3,6.94445,R,ugm-3,7.91207,R,ugm-3,44.60390,R,ugm-3
11-01-2022,06:00,0.70531,R,ugm-3,10.39104,R,ugm-3,11.47250,R,ugm-3,49.34368,R,ugm-3
11-01-2022,07:00,0.70531,R,ugm-3,12.36906,R,ugm-3,13.45052,R,ugm-3,53.18541,R,ugm-3
11-01-2022,08:00,0.96516,R,ugm-3,25.25160,R,ugm-3,26.73149,R,ugm-3,37.16991,R,ugm-3
11-01-2022,09:00,6.05080,R,ugm-3,44.58081,R,ugm-3,53.85858,R,ugm-3,17.16302,R,ugm-3
11-01-2022,10:00,4.08336,R,ugm-3,29.00415,R,ugm-3,35.26522,R,ugm-3,31.98109,R,ugm-3
11-01-2022,11:00,1.96744,R,ugm-3,13.71167,R,ugm-3,16.72837,R,ugm-3,48.99444,R,ugm-3
11-01-2022,12:00,2.41290,R,ugm-3,14.78061,R,ugm-3,18.48033,R,ugm-3,43.80562,R,ugm-3
11-01-2022,13:00,2.93260,R,ugm-3,17.37463,R,ugm-3,21.87122,R,ugm-3,40.96174,R,ugm-3
11-01-2022,14:00,2.96972,R,ugm-3,19.52179,R,ugm-3,24.07529,R,ugm-3,39.51486,R,ugm-3
11-01-2022,15:00,2.78411,R,ugm-3,19.97593,R,ugm-3,24.24484,R,ugm-3,41.80992,R,ugm-3
11-01-2022,16:00,2.74699,R,ugm-3,27.88840,R,ugm-3,32.10039,R,ugm-3,34.12647,R,ugm-3
11-01-2022,17:00,4.04624,R,ugm-3,42.45507,R,ugm-3,48.65922,R,ugm-3,17.01334,R,ugm-3
11-01-2022,18:00,11.54478,R,ugm-3,46.55554,R,ugm-3,64.25729,R,ugm-3,4.39054,R,ugm-3
11-01-2022,19:00,48.59202,R,ugm-3,35.35799,R,ugm-3,109.86471,R,ugm-3,1.84602,R,ugm-3
11-01-2022,20:00,60.54514,R,ugm-3,34.43668,R,ugm-3,127.27126,R,ugm-3,2.94366,R,ugm-3
11-01-2022,21:00,57.38981,R,ugm-3,29.83681,R,ugm-3,117.83330,R,ugm-3,2.54452,R,ugm-3
11-01-2022,22:00,55.71934,R,ugm-3,25.27730,R,ugm-3,110.71244,R,ugm-3,2.64430,R,ugm-3
11-01-2022,23:00,59.57998,R,ugm-3,23.14423,R,ugm-3,114.49893,R,ugm-3,2.99355,R,ugm-3
11-01-2022,24:00,22.19865,R,ugm-3,24.51185,R,ugm-3,58.54930,R,ugm-3,2.74409,R,ugm-3
12-01-2022,01:00,8.56297,R,ugm-3,24.17041,R,ugm-3,37.30012,R,ugm-3,2.86050,R,ugm-3
12-01-2022,02:00,6.23662,R,ugm-3,23.32925,R,ugm-3,32.89192,R,ugm-3,2.69420,R,ugm-3
12-01-2022,03:00,13.66116,R,ugm-3,23.58726,R,ugm-3,44.53408,R,ugm-3,2.69420,R,ugm-3
12-01-2022,04:00,13.84677,R,ugm-3,25.73282,R,ugm-3,46.96424,R,ugm-3,2.49463,R,ugm-3
12-01-2022,05:00,12.10201,R,ugm-3,19.08306,R,ugm-3,37.63921,R,ugm-3,2.49463,R,ugm-3
12-01-2022,06:00,31.81417,R,ugm-3,21.24145,R,ugm-3,70.02249,R,ugm-3,2.54452,R,ugm-3
12-01-2022,07:00,54.19917,R,ugm-3,28.11794,R,ugm-3,111.22217,R,ugm-3,2.59441,R,ugm-3
12-01-2022,08:00,80.63054,R,ugm-3,30.08993,R,ugm-3,153.72170,R,ugm-3,2.64430,R,ugm-3
12-01-2022,09:00,159.88754,R,ugm-3,37.87130,R,ugm-3,283.02877,R,ugm-3,2.79398,R,ugm-3
12-01-2022,10:00,103.16403,R,ugm-3,34.81722,R,ugm-3,192.99985,R,ugm-3,4.34065,R,ugm-3
12-01-2022,11:00,48.74213,R,ugm-3,34.84634,R,ugm-3,109.58322,R,ugm-3,11.67485,R,ugm-3
12-01-2022,12:00,9.35493,R,ugm-3,28.32506,R,ugm-3,42.66907,R,ugm-3,36.07228,R,ugm-3
12-01-2022,13:00,8.24124,R,ugm-3,25.51145,R,ugm-3,38.14785,R,ugm-3,38.46712,R,ugm-3
12-01-2022,14:00,8.51348,R,ugm-3,25.45196,R,ugm-3,38.50578,R,ugm-3,29.08733,R,ugm-3
12-01-2022,15:00,35.89767,R,ugm-3,39.73389,R,ugm-3,94.77621,R,ugm-3,22.60130,R,ugm-3
12-01-2022,16:00,17.33631,R,ugm-3,42.87537,R,ugm-3,69.45734,R,ugm-3,16.51442,R,ugm-3
12-01-2022,17:00,19.56367,R,ugm-3,51.10229,R,ugm-3,81.09950,R,ugm-3,4.59011,R,ugm-3
12-01-2022,18:00,23.90703,R,ugm-3,49.24637,R,ugm-3,85.90330,R,ugm-3,2.44473,R,ugm-3
12-01-2022,19:00,40.05541,R,ugm-3,40.87531,R,ugm-3,102.29275,R,ugm-3,2.34495,R,ugm-3
12-01-2022,20:00,52.75138,R,ugm-3,29.77270,R,ugm-3,110.65702,R,ugm-3,5.08904,R,ugm-3